TimeEDT,TemperatureF,Dew PointF,Humidity,Sea Level PressureIn,VisibilityMPH,Wind Direction,Wind SpeedMPH,Gust SpeedMPH,PrecipitationIn,Events,Conditions,WindDirDegrees,DateUTC
12:53 AM,59.0,53.6,82,30.00,10.0,Calm,Calm,-,N/A,,Clear,0,2012-10-07 04:53:00
1:53 AM,57.0,52.0,83,30.00,10.0,WNW,5.8,-,N/A,,Clear,290,2012-10-07 05:53:00
2:53 AM,55.9,51.1,84,30.00,10.0,WNW,5.8,-,N/A,,Clear,300,2012-10-07 06:53:00
3:53 AM,55.0,51.1,86,29.99,10.0,NW,4.6,-,N/A,,Scattered Clouds,320,2012-10-07 07:53:00
4:53 AM,55.0,50.0,83,29.99,10.0,NW,3.5,-,N/A,,Scattered Clouds,320,2012-10-07 08:53:00
5:53 AM,54.0,50.0,86,29.99,10.0,NW,3.5,-,N/A,,Scattered Clouds,310,2012-10-07 09:53:00
6:53 AM,54.0,48.9,83,30.01,10.0,Calm,Calm,-,N/A,,Clear,0,2012-10-07 10:53:00
7:53 AM,54.0,48.9,83,30.01,10.0,WNW,3.5,-,N/A,,Partly Cloudy,290,2012-10-07 11:53:00
8:53 AM,55.0,48.9,80,30.04,10.0,NW,3.5,-,N/A,,Scattered Clouds,320,2012-10-07 12:53:00
9:53 AM,57.0,50.0,77,30.06,10.0,NW,5.8,-,N/A,,Clear,320,2012-10-07 13:53:00
10:43 AM,57.2,50.0,77,30.09,10.0,WNW,9.2,-,N/A,,Mostly Cloudy,290,2012-10-07 14:43:00
10:53 AM,59.0,51.1,75,30.09,10.0,WNW,9.2,-,N/A,,Mostly Cloudy,300,2012-10-07 14:53:00
11:05 AM,59.0,50.0,72,30.09,10.0,NW,8.1,-,N/A,,Scattered Clouds,320,2012-10-07 15:05:00
11:53 AM,59.0,50.0,72,30.08,10.0,WNW,6.9,-,N/A,,Clear,300,2012-10-07 15:53:00
12:53 PM,64.0,50.0,60,30.08,10.0,WNW,13.8,-,N/A,,Clear,300,2012-10-07 16:53:00
1:53 PM,64.9,48.0,54,30.08,10.0,NW,13.8,20.7,N/A,,Mostly Cloudy,310,2012-10-07 17:53:00
2:53 PM,62.1,48.0,60,30.06,10.0,NW,9.2,-,N/A,,Partly Cloudy,310,2012-10-07 18:53:00
3:53 PM,63.0,46.9,56,30.05,10.0,North,10.4,20.7,N/A,,Clear,350,2012-10-07 19:53:00
4:53 PM,61.0,46.9,60,30.06,10.0,NNW,9.2,-,N/A,,Partly Cloudy,340,2012-10-07 20:53:00
5:53 PM,62.1,46.0,56,30.05,10.0,North,5.8,-,N/A,,Clear,350,2012-10-07 21:53:00
6:53 PM,59.0,45.0,60,30.06,10.0,NNW,6.9,-,N/A,,Clear,340,2012-10-07 22:53:00
7:53 PM,57.0,45.0,64,30.06,10.0,North,3.5,-,N/A,,Clear,350,2012-10-07 23:53:00
8:53 PM,55.0,44.1,67,30.08,10.0,Calm,Calm,-,N/A,,Clear,0,2012-10-08 00:53:00
9:53 PM,54.0,43.0,66,30.09,10.0,NNW,3.5,-,N/A,,Clear,340,2012-10-08 01:53:00
10:53 PM,53.1,43.0,69,30.09,10.0,Calm,Calm,-,N/A,,Clear,0,2012-10-08 02:53:00
11:53 PM,53.1,43.0,69,30.09,10.0,Calm,Calm,-,N/A,,Clear,0,2012-10-08 03:53:00